Selinsgrove, PA

6:25 AM EDT on May 24, 2018 (GMT -0400)
Penn Valley

Weather History for KSEG - February, 2013

Change the Weather History Date:

Wednesday, February 27, 2013

  Actual Average (KIPT) Record (KIPT)
Temperature  
Mean Temperature 40 °F -  
Max Temperature 44 °F 41 °F 69 °F (1997)
Min Temperature 35 °F 23 °F -5 °F (1963)
Degree Days  
Heating Degree Days 26    
Moisture  
Dew Point 37 °F    
Average Humidity 99    
Maximum Humidity 100    
Minimum Humidity 79    
Precipitation  
Precipitation 0.54 in - - ()
Sea Level Pressure  
Sea Level Pressure 29.63 in    
Wind  
Wind Speed 4 mph (WNW)    
Max Wind Speed 8 mph    
Max Gust Speed -    
Visibility 7 miles    
Events Rain    
Averages and records for this station are not official NWS values.
T = Trace of Precipitation, MM = Missing Value Source: NWS Daily Summary

Daily Weather History Graph

Daily Weather History Graph

Search for Another Location

Airport or City:

Astronomy

Feb. 27, 2013 Rise Set
Actual Time 6:44 AM EST 5:56 PM EST
Civil Twilight 6:16 AM EST 6:24 PM EST
Nautical Twilight 5:44 AM EST 6:55 PM EST
Astronomical Twilight 5:13 AM EST 7:27 PM EST
Moon 8:16 PM EST (2/27) 7:17 AM EST (2/27)
Length of Visible Light 12h 07m
Length of Day
11h 12m
Waning Gibbous, 96% of the Moon is Illuminated
Feb 27
Waning Gibbous
Mar 4
Last Quarter
Mar 11
New
Mar 19
First Quarter
Mar 27
Full

Hourly Weather History & Observations

Time (EST) Temp. Windchill Dew Point Humidity Pressure Visibility Wind Dir Wind Speed Gust Speed Precip Events Conditions
12:16 AM 35.6 °F 30.7 °F 35.6 °F 100% 29.76 in 4.0 mi NNW 5.8 mph - 0.02 in Rain Light Rain
12:42 AM 35.6 °F 31.7 °F 35.6 °F 100% 29.75 in 3.0 mi NNW 4.6 mph - 0.06 in Rain Light Rain
12:53 AM 35.1 °F 30.1 °F 35.1 °F 100% 29.74 in 3.0 mi NNE 5.8 mph - 0.08 in Rain Rain
1:05 AM 35.6 °F 32.8 °F 35.6 °F 100% 29.73 in 5.0 mi NNE 3.5 mph - 0.01 in Rain Light Rain
1:31 AM 35.6 °F 30.7 °F 35.6 °F 100% 29.70 in 5.0 mi NNE 5.8 mph - 0.04 in Rain Light Rain
1:53 AM 36.0 °F 32.1 °F 36.0 °F 100% 29.70 in 9.0 mi North 4.6 mph - 0.05 in Rain Light Rain
2:05 AM 35.6 °F 31.7 °F 35.6 °F 100% 29.69 in 10.0 mi NW 4.6 mph - 0.00 in   Overcast
2:53 AM 35.1 °F 28.6 °F 35.1 °F 100% 29.65 in 5.0 mi NNW 8.1 mph - 0.01 in Rain Rain
3:01 AM 35.6 °F 30.7 °F 35.6 °F 100% 29.64 in 5.0 mi NNW 5.8 mph - 0.00 in Rain Light Rain
3:50 AM 35.6 °F 30.7 °F 35.6 °F 100% 29.60 in 5.0 mi NNW 5.8 mph - 0.05 in Rain Light Rain
3:53 AM 36.0 °F 32.1 °F 36.0 °F 100% 29.61 in 5.0 mi NW 4.6 mph - 0.05 in Rain Light Rain
4:53 AM 37.0 °F 33.3 °F 37.0 °F 100% 29.60 in 10.0 mi WNW 4.6 mph - 0.00 in   Overcast
5:04 AM 37.4 °F 34.9 °F 37.4 °F 100% 29.59 in 10.0 mi WNW 3.5 mph - N/A   Overcast
5:48 AM 37.4 °F 34.9 °F 37.4 °F 100% 29.57 in 10.0 mi NE 3.5 mph - 0.04 in   Overcast
5:53 AM 37.9 °F - 37.9 °F 100% 29.58 in 10.0 mi Calm Calm - 0.04 in   Overcast
6:53 AM 37.0 °F 33.3 °F 37.0 °F 100% 29.57 in 9.0 mi WNW 4.6 mph - 0.01 in Rain Light Rain
7:38 AM 37.4 °F 32.8 °F 37.4 °F 100% 29.57 in 2.5 mi West 5.8 mph - 0.06 in Rain Rain
7:53 AM 37.0 °F 33.3 °F 37.0 °F 100% 29.59 in 2.0 mi West 4.6 mph - 0.09 in Rain Rain
8:08 AM 37.4 °F 34.9 °F 37.4 °F 100% 29.58 in 1.8 mi Variable 3.5 mph - 0.03 in Rain Rain
8:35 AM 35.6 °F 31.7 °F 35.6 °F 100% 29.59 in 3.0 mi West 4.6 mph - 0.07 in Rain Light Rain
8:45 AM 35.6 °F 30.7 °F 35.6 °F 100% 29.59 in 2.0 mi West 5.8 mph - 0.08 in Rain Light Rain
8:53 AM 36.0 °F 31.1 °F 36.0 °F 100% 29.60 in 1.8 mi West 5.8 mph - 0.09 in Rain Light Rain
9:08 AM 37.4 °F 33.8 °F 37.4 °F 100% 29.59 in 2.5 mi Variable 4.6 mph - 0.02 in Rain Rain
9:18 AM 37.4 °F 32.8 °F 37.4 °F 100% 29.59 in 3.0 mi West 5.8 mph - 0.03 in Rain Light Rain
9:32 AM 37.4 °F 32.8 °F 37.4 °F 100% 29.60 in 4.0 mi West 5.8 mph - 0.05 in Rain Light Rain
9:53 AM 37.0 °F 31.6 °F 37.0 °F 100% 29.61 in 5.0 mi WNW 6.9 mph - 0.07 in Rain Light Rain
10:18 AM 37.4 °F 33.8 °F 37.4 °F 100% 29.61 in 7.0 mi West 4.6 mph - 0.00 in Rain Light Rain
10:53 AM 37.0 °F 33.3 °F 37.0 °F 100% 29.63 in 4.0 mi West 4.6 mph - 0.05 in Rain Rain
11:22 AM 37.4 °F 34.9 °F 37.4 °F 100% 29.62 in 6.0 mi Variable 3.5 mph - 0.03 in Rain Light Rain
12:08 PM 37.4 °F 34.9 °F 37.4 °F 100% 29.61 in 10.0 mi Variable 3.5 mph - 0.00 in Rain Light Rain
12:31 PM 39.2 °F 35.9 °F 39.2 °F 100% 29.60 in 10.0 mi WSW 4.6 mph - 0.00 in   Mostly Cloudy
12:38 PM 39.2 °F 35.0 °F 39.2 °F 100% 29.61 in 10.0 mi SW 5.8 mph - 0.00 in   Overcast
12:53 PM 39.9 °F 37.8 °F 39.9 °F 100% 29.61 in 10.0 mi Variable 3.5 mph - 0.00 in   Overcast
1:53 PM 41.0 °F 39.0 °F 41.0 °F 100% 29.61 in 10.0 mi WSW 3.5 mph - N/A   Overcast
2:53 PM 43.0 °F 40.3 °F 43.0 °F 100% 29.62 in 10.0 mi Variable 4.6 mph - N/A   Overcast
3:53 PM 44.1 °F - 44.1 °F 100% 29.63 in 10.0 mi Calm Calm - N/A   Overcast
4:53 PM 44.1 °F - 42.1 °F 93% 29.63 in 10.0 mi Calm Calm - N/A   Overcast
5:53 PM 43.0 °F 41.3 °F 42.1 °F 97% 29.64 in 10.0 mi SW 3.5 mph - N/A   Overcast
6:53 PM 43.0 °F 41.3 °F 41.0 °F 93% 29.66 in 10.0 mi SW 3.5 mph - N/A   Overcast
7:53 PM 42.1 °F - 36.0 °F 79% 29.65 in 10.0 mi Calm Calm - N/A   Overcast
8:53 PM 37.9 °F - 36.0 °F 93% 29.67 in 10.0 mi Calm Calm - N/A   Overcast
9:53 PM 39.0 °F - 37.0 °F 93% 29.66 in 10.0 mi Calm Calm - N/A   Overcast
10:53 PM 36.0 °F - 35.1 °F 97% 29.65 in 8.0 mi Calm Calm - N/A   Overcast
11:53 PM 36.0 °F - 34.0 °F 93% 29.63 in 9.0 mi Calm Calm - N/A   Overcast